Total_Precipitation_Accumulation
0.22 0.15 0.15 0.20 0.22 0.19 0.09 0.07 0.06 0.04 0.03 0.03 0.04 0.04 0.05 0.07 0.10 0.20 0.18 0.15 0.16 0.23 0.33 0.60 0.98 1.15 1.18 1.20 1.22 1.26 1.18 1.15 1.17 1.24 1.33 1.36 1.35 1.30 1.41 1.48 1.51 1.58 1.64 1.61 1.61 1.57 1.46 1.25 1.07
0.19 0.20 0.24 0.33 0.25 0.16 0.09 0.07 0.10 0.06 0.06 0.04 0.05 0.06 0.05 0.06 0.08 0.11 0.18 0.19 0.16 0.23 0.35 0.56 0.94 1.15 1.23 1.27 1.29 1.28 1.24 1.25 1.26 1.27 1.34 1.39 1.35 1.28 1.31 1.38 1.41 1.51 1.58 1.61 1.58 1.51 1.42 1.23 1.08
0.24 0.29 0.35 0.37 0.26 0.17 0.14 0.10 0.12 0.10 0.09 0.05 0.06 0.08 0.08 0.09 0.09 0.11 0.16 0.17 0.21 0.28 0.39 0.64 0.99 1.20 1.30 1.33 1.30 1.28 1.28 1.28 1.31 1.33 1.40 1.41 1.41 1.30 1.23 1.20 1.26 1.36 1.42 1.49 1.57 1.41 1.29 1.15 1.02
0.37 0.46 0.46 0.37 0.22 0.15 0.11 0.10 0.13 0.13 0.11 0.07 0.07 0.08 0.07 0.08 0.10 0.12 0.17 0.20 0.25 0.31 0.41 0.66 1.00 1.24 1.31 1.31 1.29 1.29 1.32 1.35 1.36 1.36 1.45 1.49 1.46 1.37 1.29 1.21 1.19 1.16 1.23 1.33 1.38 1.32 1.28 1.14 0.99
0.47 0.56 0.51 0.34 0.18 0.11 0.08 0.08 0.11 0.12 0.11 0.09 0.07 0.08 0.10 0.11 0.12 0.15 0.21 0.26 0.32 0.41 0.50 0.70 1.02 1.28 1.37 1.39 1.39 1.38 1.37 1.41 1.44 1.41 1.47 1.55 1.49 1.47 1.39 1.29 1.23 1.15 1.13 1.17 1.20 1.18 1.22 1.15 1.02
0.65 0.61 0.44 0.30 0.18 0.08 0.06 0.08 0.10 0.11 0.13 0.12 0.10 0.10 0.14 0.18 0.20 0.23 0.27 0.36 0.42 0.51 0.65 0.83 1.19 1.39 1.53 1.58 1.55 1.53 1.54 1.59 1.59 1.57 1.59 1.64 1.55 1.46 1.40 1.29 1.25 1.22 1.22 1.21 1.15 1.12 1.15 1.15 1.08
0.64 0.54 0.33 0.24 0.18 0.11 0.08 0.09 0.11 0.11 0.14 0.14 0.13 0.14 0.18 0.27 0.29 0.29 0.34 0.41 0.50 0.62 0.77 0.91 1.14 1.39 1.68 1.84 1.84 1.76 1.71 1.74 1.74 1.71 1.71 1.71 1.67 1.62 1.55 1.45 1.34 1.29 1.30 1.29 1.18 1.06 1.03 1.03 1.05
0.63 0.61 0.35 0.23 0.20 0.13 0.10 0.11 0.12 0.15 0.17 0.16 0.16 0.16 0.18 0.29 0.33 0.39 0.45 0.53 0.62 0.75 0.89 1.03 1.20 1.39 1.63 1.85 1.99 1.90 1.77 1.73 1.81 1.82 1.76 1.78 1.74 1.74 1.70 1.55 1.41 1.32 1.31 1.26 1.18 1.12 1.05 0.94 0.89
0.74 0.76 0.41 0.22 0.20 0.16 0.14 0.16 0.15 0.16 0.21 0.23 0.20 0.16 0.19 0.28 0.40 0.51 0.60 0.72 0.81 0.92 1.02 1.12 1.31 1.46 1.71 1.92 1.96 2.00 1.91 1.86 1.85 1.79 1.74 1.77 1.73 1.67 1.61 1.46 1.43 1.42 1.36 1.30 1.26 1.18 1.07 0.96 0.81
0.87 0.70 0.36 0.20 0.18 0.18 0.20 0.22 0.21 0.24 0.26 0.30 0.28 0.23 0.26 0.37 0.48 0.54 0.58 0.67 0.82 0.99 1.11 1.19 1.36 1.49 1.71 1.77 1.95 2.13 2.01 1.92 1.83 1.66 1.65 1.63 1.64 1.63 1.51 1.49 1.47 1.47 1.45 1.43 1.41 1.32 1.20 1.04 0.85
0.73 0.52 0.28 0.21 0.19 0.19 0.24 0.23 0.22 0.28 0.28 0.31 0.29 0.26 0.32 0.45 0.57 0.59 0.61 0.65 0.74 0.93 1.14 1.25 1.42 1.57 1.72 1.81 1.83 1.99 2.02 1.96 1.86 1.73 1.68 1.69 1.70 1.72 1.64 1.56 1.58 1.50 1.43 1.43 1.45 1.41 1.18 1.06 0.96
0.55 0.37 0.27 0.24 0.23 0.24 0.27 0.22 0.21 0.26 0.26 0.26 0.30 0.28 0.33 0.46 0.54 0.61 0.70 0.73 0.81 0.98 1.17 1.32 1.55 1.72 1.79 1.87 1.90 1.93 2.03 2.04 1.93 1.87 1.80 1.77 1.73 1.70 1.63 1.51 1.47 1.46 1.45 1.45 1.44 1.39 1.23 1.09 0.94
0.44 0.33 0.28 0.27 0.27 0.27 0.28 0.24 0.21 0.23 0.24 0.29 0.37 0.34 0.34 0.44 0.54 0.66 0.81 0.87 0.92 1.02 1.21 1.41 1.67 1.84 1.93 2.00 2.06 2.04 2.01 1.97 1.94 1.86 1.82 1.73 1.69 1.66 1.61 1.52 1.49 1.49 1.41 1.34 1.31 1.26 1.20 1.07 0.97
0.39 0.33 0.31 0.33 0.36 0.31 0.32 0.27 0.21 0.21 0.23 0.33 0.41 0.38 0.38 0.49 0.58 0.69 0.84 0.98 1.01 1.06 1.23 1.47 1.70 1.87 1.98 2.02 2.04 2.01 2.02 1.97 1.95 1.88 1.76 1.70 1.67 1.64 1.62 1.59 1.55 1.55 1.50 1.40 1.35 1.30 1.26 1.16 1.05
0.45 0.49 0.47 0.41 0.38 0.38 0.40 0.36 0.21 0.17 0.21 0.35 0.42 0.41 0.42 0.53 0.66 0.70 0.77 0.90 1.04 1.14 1.34 1.59 1.80 1.97 2.04 2.07 2.09 2.07 2.00 1.97 1.92 1.88 1.90 1.84 1.72 1.62 1.58 1.59 1.54 1.50 1.49 1.45 1.41 1.42 1.42 1.36 1.24
0.66 0.77 0.68 0.45 0.35 0.36 0.57 0.51 0.21 0.17 0.23 0.36 0.50 0.48 0.43 0.52 0.67 0.76 0.80 0.90 1.07 1.25 1.41 1.62 1.89 2.04 2.07 2.12 2.16 2.17 2.09 2.01 2.00 1.94 1.94 1.90 1.83 1.74 1.73 1.67 1.59 1.53 1.58 1.53 1.40 1.36 1.35 1.32 1.26
0.97 0.89 0.62 0.43 0.36 0.38 0.55 0.52 0.25 0.22 0.26 0.34 0.48 0.53 0.49 0.54 0.72 0.87 0.92 0.95 1.12 1.25 1.32 1.56 1.85 2.01 2.06 2.14 2.18 2.26 2.27 2.19 2.13 2.07 1.99 1.92 1.87 1.80 1.80 1.78 1.69 1.63 1.68 1.67 1.55 1.39 1.27 1.20 1.15
0.83 0.66 0.54 0.46 0.42 0.46 0.46 0.40 0.27 0.28 0.29 0.32 0.41 0.53 0.57 0.55 0.62 0.81 0.96 1.05 1.19 1.36 1.45 1.57 1.83 1.98 2.13 2.26 2.35 2.38 2.38 2.31 2.26 2.20 2.02 1.93 1.93 1.91 1.84 1.79 1.72 1.66 1.65 1.66 1.65 1.55 1.40 1.25 1.16
0.57 0.58 0.57 0.47 0.42 0.58 0.53 0.43 0.33 0.32 0.30 0.34 0.45 0.49 0.56 0.56 0.60 0.76 0.93 1.11 1.29 1.42 1.49 1.56 1.76 1.86 2.10 2.29 2.24 2.21 2.18 2.17 2.14 2.14 2.14 2.08 2.10 2.09 2.00 1.92 1.88 1.81 1.70 1.57 1.55 1.57 1.57 1.49 1.38
0.69 0.72 0.64 0.53 0.47 0.63 0.61 0.49 0.36 0.36 0.35 0.36 0.44 0.49 0.53 0.57 0.64 0.72 0.88 1.03 1.16 1.30 1.37 1.44 1.64 1.82 2.00 2.16 2.14 2.06 2.06 2.05 2.05 2.02 2.11 2.21 2.23 2.22 2.12 1.98 1.92 1.88 1.81 1.71 1.58 1.56 1.60 1.54 1.50
0.71 0.66 0.60 0.58 0.58 0.65 0.70 0.65 0.43 0.37 0.33 0.36 0.42 0.51 0.57 0.54 0.59 0.65 0.76 0.92 1.04 1.16 1.23 1.35 1.58 1.78 2.01 2.19 2.35 2.32 2.32 2.31 2.25 2.11 2.02 2.07 2.11 2.07 2.01 1.90 1.82 1.82 1.81 1.76 1.66 1.56 1.52 1.49 1.41
0.72 0.46 0.49 0.60 0.88 1.00 0.84 0.96 0.54 0.39 0.37 0.38 0.41 0.45 0.52 0.53 0.57 0.64 0.72 0.83 0.94 1.04 1.12 1.25 1.57 1.81 2.00 2.16 2.28 2.36 2.31 2.24 2.13 2.02 1.96 1.92 1.89 1.89 1.87 1.87 1.80 1.70 1.65 1.59 1.55 1.52 1.48 1.46 1.47
0.64 0.44 0.51 0.71 0.98 1.10 0.83 0.97 0.61 0.40 0.45 0.44 0.43 0.43 0.44 0.48 0.53 0.62 0.71 0.80 0.92 1.03 1.07 1.17 1.40 1.67 1.90 2.11 2.19 2.27 2.25 2.15 2.11 2.14 2.13 2.11 2.02 1.92 1.88 1.86 1.86 1.77 1.66 1.57 1.53 1.52 1.51 1.48 1.43
0.71 0.80 0.91 1.05 1.56 1.76 0.72 0.70 0.59 0.49 0.57 0.53 0.46 0.43 0.40 0.44 0.50 0.61 0.71 0.77 0.89 1.11 1.14 1.19 1.30 1.49 1.75 1.95 2.03 2.07 2.11 2.08 2.06 2.11 2.12 2.12 2.03 1.90 1.80 1.79 1.79 1.75 1.65 1.53 1.48 1.47 1.49 1.48 1.41
1.16 1.71 2.49 2.64 2.61 1.57 0.43 0.50 0.61 0.51 0.49 0.54 0.53 0.45 0.40 0.43 0.50 0.55 0.64 0.76 0.84 1.02 1.13 1.20 1.28 1.33 1.52 1.77 1.88 1.85 1.93 1.92 1.91 1.95 1.95 1.93 1.92 1.83 1.73 1.64 1.59 1.56 1.54 1.52 1.48 1.44 1.40 1.41 1.46
1.28 1.57 2.01 1.89 1.32 0.68 0.34 0.43 0.51 0.46 0.41 0.42 0.46 0.44 0.40 0.42 0.49 0.52 0.53 0.70 0.85 0.93 1.02 1.13 1.23 1.29 1.39 1.51 1.68 1.73 1.87 1.86 1.82 1.86 1.89 1.84 1.77 1.69 1.65 1.63 1.54 1.42 1.38 1.43 1.48 1.47 1.40 1.39 1.44
1.13 1.26 1.12 1.42 0.96 0.67 0.50 0.36 0.34 0.32 0.33 0.33 0.39 0.42 0.45 0.47 0.50 0.54 0.55 0.65 0.80 0.86 0.93 1.06 1.18 1.31 1.35 1.36 1.51 1.61 1.70 1.77 1.73 1.72 1.75 1.76 1.71 1.67 1.69 1.65 1.61 1.52 1.44 1.39 1.41 1.43 1.38 1.40 1.39
0.91 1.04 1.36 1.92 1.59 0.89 0.49 0.34 0.43 0.40 0.39 0.34 0.36 0.43 0.47 0.50 0.50 0.53 0.59 0.65 0.76 0.84 0.90 1.01 1.08 1.26 1.43 1.42 1.44 1.57 1.61 1.67 1.71 1.66 1.63 1.56 1.53 1.59 1.69 1.71 1.65 1.65 1.61 1.54 1.45 1.40 1.37 1.43 1.43
0.91 1.21 1.53 1.71 1.41 1.08 0.66 0.51 0.50 0.45 0.43 0.43 0.43 0.49 0.53 0.55 0.54 0.55 0.63 0.70 0.74 0.82 0.88 1.04 1.11 1.20 1.43 1.54 1.50 1.52 1.61 1.64 1.70 1.70 1.59 1.48 1.42 1.45 1.55 1.63 1.64 1.65 1.67 1.63 1.57 1.48 1.45 1.46 1.45
0.75 0.97 1.22 1.66 1.33 0.88 0.77 0.54 0.39 0.36 0.37 0.40 0.43 0.48 0.56 0.58 0.63 0.63 0.70 0.73 0.75 0.81 0.87 0.99 1.06 1.14 1.33 1.51 1.61 1.58 1.60 1.71 1.74 1.68 1.61 1.55 1.50 1.47 1.49 1.61 1.72 1.71 1.69 1.66 1.64 1.60 1.60 1.63 1.58